Weather Roundup
Issued by NWS

Home | Current Version | Previous Version | Text Only | Print | Product List | Glossary On
Versions: 1 2 3 4 5 6 7 8 9 10 11 12 13 14 15 16 17 18 19 20 21 22 23 24 25 26 27 28 29 30 31 32 33 34 35 36 37 38 39 40 41 42 43 44 45 46 47 48 49 50
000
NZUS93 KARX 050859
HRRWXR

CURRENT HOURLY OBSERVATIONS ACROSS
MUCH OF THE UPPER MISSISSIPPI VALLEY
NATIONAL WEATHER SERVICE LA CROSSE WI
300 AM CST THU MAR 05 2015


...SOUTHEAST MINNESOTA...


CITY           SKY/WX    TMP DP  RH WIND       PRES   REMARKS
ROCHESTER      CLEAR     -9 -15  75 NW10      30.38F WCI -27
ROCHESTER/MAYO FAIR      -5 -13  69 NW6       30.41S WCI -17
WINONA         CLEAR      0  -9  65 NW6       30.46S WCI -12
AUSTIN         CLEAR     -6 -11  77 NW5       30.40S WCI -17
ALBERT LEA     CLEAR     -6 -11  77 CALM      30.41S
DODGE CENTER   PTCLDY    -6 -11  77 NW7       30.38S WCI -20
PRESTON        CLEAR     -9 -15  76 NW10      30.39S WCI -28
OWATONNA       CLEAR     -9 -15  77 CALM      30.41F
FARIBAULT      CLEAR     -9 -13  84 CALM      30.42F
$$

...ELSEWHERE IN MINNESOTA...


CITY           SKY/WX    TMP DP  RH WIND       PRES   REMARKS
MINNEAPOLIS    CLEAR     -5 -12  72 NW7       30.45S WCI -19
INTNL FALLS    CLEAR    -22 -27  77 SW6       30.31F WCI -38
DULUTH         CLEAR    -10 -17  71 W9        30.31F WCI -27
RED WING       CLEAR    -11 -18  70 CALM      30.44F
REDWOOD FALLS  CLEAR     -8 -14  74 W8        30.45S WCI -24
MANKATO        CLEAR     -4  -9  77 NW6       30.43F WCI -16
FAIRMONT       CLEAR     -4 -11  71 NW6       30.41F WCI -16
$$

...SOUTHWEST WISCONSIN...


CITY           SKY/WX    TMP DP  RH WIND       PRES   REMARKS
LA CROSSE      CLEAR     -1  -9  68 CALM      30.43F
PRAIRIE DU CHI CLEAR     -1 -10  64 W8        30.44S WCI -15
BOSCOBEL       CLEAR     -5 -11  75 CALM      30.43S
LONE ROCK      NOT AVBL
PLATTEVILLE    CLEAR      0  -7  71 NW6       30.37S WCI -11
FORT MC COY    CLEAR     -8 -14  76 CALM      30.42S
VIROQUA        FAIR      -4 -10  73 NW5       30.35S WCI -14
WIS DELLS      NOT AVBL
$$

...ELSEWHERE IN WISCONSIN...


CITY           SKY/WX    TMP DP  RH WIND       PRES   REMARKS
MILWAUKEE      MOCLDY     7  -9  48 N9        30.36S WCI  -7
MADISON        CLEAR      1  -9  62 N5        30.36F WCI  -9
GREEN BAY      CLEAR     -7 -15  68 NW8       30.37S WCI -23
EAU CLAIRE     NOT AVBL
BLACK RVR FLS  FAIR     -13 -19  76 CALM      30.41S
MEDFORD        CLEAR    -12 -18  74 CALM      30.31S
WAUSAU         CLEAR     -6 -14  68 NW6       30.32F WCI -19
WIS RAPIDS     CLEAR     -4 -15  59 NW6       30.37F WCI -16
MARSHFIELD     CLEAR     -7 -15  68 NW7       30.33F WCI -21
RICE LAKE      CLEAR    -15 -20  76 CALM      30.40S
$$

...NORTHEAST IOWA...


CITY           SKY/WX    TMP DP  RH WIND       PRES   REMARKS
DECORAH        CLEAR     -4 -13  65 NW5       30.38F WCI -15
MASON CITY     CLEAR     -9 -14  78 NW6       30.44S WCI -22
CHARLES CITY   CLEAR     -8 -15  71 NW10      30.42F WCI -26
OELWEIN        CLEAR     -9 -17  70 NW9       30.42S WCI -27
$$

...ELSEWHERE IN IOWA...


CITY           SKY/WX    TMP DP  RH WIND       PRES   REMARKS
DES MOINES     PTCLDY     6  -4  63 N8        30.48R WCI  -7
IOWA CITY      CLEAR      5  -5  63 NW8       30.46S WCI  -8
FORT DODGE     CLEAR     -2  -9  71 CALM      30.46S
$$

...NORTHERN ILLINOIS...


CITY           SKY/WX    TMP DP  RH WIND       PRES   REMARKS
CHICAGO-OHARE  CLOUDY     8  -6  52 N8        30.34F WCI  -4
CHICAGO-MIDWAY CLOUDY    12  -4  48 N12       30.35F WCI  -2
MOLINE         PTCLDY     8  -4  58 NW8       30.43S WCI  -4
ROCKFORD       MOCLDY     5  -5  63 NW7       30.38F WCI  -7
PEORIA         PTCLDY    12   0  58 N7        30.40F WCI   1
$$

NOTE: "FAIR" INDICATES FEW OR NO CLOUDS BELOW 12,000 FEET WITH NO
SIGNIFICANT WEATHER AND/OR OBSTRUCTIONS TO VISIBILITY. WIND
SPEEDS ARE IN MILES-PER-HOUR.



USA.gov is the U.S. government's official web portal to all federal, state and local government web resources and services.